Location: Recife
(8.0585°S, 34.8848°W)
Time: 06:49:33
(UTC-03:00)

Vanguard 1 - Pass Details

Date: 17 April 2026
Orbit: 654 x 3817 km, 34.2° (Epoch: 13 May)

Event Time Altitude Azimuth Distance (km) Brightness Sun altitude
Rises 05:10:01 0° 330° (NNW) 5,793 13.8 -3.7°
Reaches altitude 10° 05:16:19 10° 348° (NNW) 4,064 13.2 -2.2°
Maximum altitude 05:21:56 16° 22° (NNE) 2,938 13.0 -0.8°
Drops below altitude 10° 05:26:10 10° 59° (ENE) 2,910 14.0 0.2°
Sets 05:29:30 0° 82° (E) 3,511 16.7 1.0°
